Wind_Speed
11 12 12 13 11 10 10 12 15 13 18 17 16 23 13 21 25 18 11 10 11 14 15 17 20 22 26 32 38 44 50 54 58 59 59 59 58 58 58 58 57 56 57 56
12 13 14 13 11 10 10 12 13 12 14 23 24 22 18 23 22 17 13 11 12 14 16 18 21 26 31 37 44 49 52 53 57 61 62 63 64 66 68 66 63 64 63 63
13 10 14 14 11 11 10 11 11 16 22 23 21 17 6 11 15 15 14 14 15 16 18 21 25 30 35 43 46 48 53 54 51 49 48 47 47 51 52 52 54 57 58 57
12 16 13 13 12 10 10 8 12 19 17 8 13 7 13 12 17 12 14 15 17 21 23 27 31 35 42 46 46 52 53 46 45 45 47 48 50 51 51 54 56 57 58 58
10 9 14 13 12 10 8 10 15 18 16 14 7 5 5 11 12 9 13 15 19 24 27 29 34 42 44 46 50 56 52 43 42 43 48 51 51 50 51 51 54 56 54 55
16 11 13 14 13 11 9 10 16 13 8 2 2 2 12 7 6 9 12 16 20 26 28 32 38 43 44 46 49 54 50 42 42 44 47 49 50 51 54 54 54 54 56 55
16 16 16 14 13 12 9 6 3 4 2 4 3 7 12 7 11 14 15 15 22 29 32 36 40 40 41 45 48 51 47 40 42 47 46 47 46 46 47 47 50 50 51 53
13 7 18 15 16 7 8 6 4 5 2 4 8 10 3 10 13 12 13 17 27 28 35 38 40 41 43 46 50 52 46 43 43 43 40 41 42 44 45 43 43 45 48 49
11 10 12 12 15 10 6 7 6 3 2 2 6 11 20 6 10 12 14 21 27 31 35 36 37 39 41 46 50 51 44 40 39 39 38 39 39 42 42 42 42 47 49 50
11 5 13 16 15 15 13 8 4 5 1 4 6 12 13 12 12 13 17 28 31 35 32 34 35 37 40 45 49 47 43 41 38 37 37 37 39 40 38 39 40 41 42 39
20 13 7 14 13 14 14 12 9 5 3 4 2 8 9 14 11 20 21 29 38 37 33 34 35 36 41 45 49 44 40 35 36 37 36 36 38 37 36 37 35 35 34 32
20 10 8 12 12 13 16 14 15 6 6 7 2 16 7 10 23 33 30 34 37 34 34 34 33 35 40 42 47 42 37 32 36 36 42 37 37 33 33 34 37 27 27 26
17 12 5 3 12 17 17 20 21 20 12 14 5 14 21 37 36 32 31 31 31 31 31 32 31 33 37 40 45 40 34 31 34 36 41 37 34 29 30 30 30 27 21 20
17 17 14 9 3 4 9 11 15 21 12 17 34 46 34 28 28 24 26 30 29 28 30 29 28 30 34 37 42 40 33 33 35 37 41 37 29 27 25 24 23 27 18 18
23 20 23 24 22 21 23 24 24 28 33 30 42 42 28 26 20 21 27 26 26 24 25 27 27 28 31 34 37 41 35 33 36 38 42 34 28 24 22 20 21 21 25 19
27 17 20 24 22 23 26 28 31 33 36 42 42 39 19 18 18 26 25 25 24 22 22 25 26 27 29 32 34 39 39 36 35 36 38 37 26 24 22 17 19 23 17 10
20 18 16 13 18 16 19 33 31 34 35 28 30 20 16 14 21 25 24 26 22 20 22 23 25 24 26 29 31 35 40 40 37 34 33 33 32 26 24 18 18 18 14 12
19 19 17 8 9 3 17 19 18 20 23 22 19 16 14 17 22 25 25 24 21 19 20 21 23 23 23 26 28 32 37 39 34 31 30 30 32 35 32 24 19 17 12 13
26 20 10 7 9 22 28 23 23 23 28 13 22 9 15 21 22 23 26 24 21 19 19 20 22 22 21 23 25 27 31 36 33 30 32 31 32 33 35 35 27 24 18 18
28 26 21 12 5 6 7 7 7 8 23 5 6 14 18 22 27 25 26 24 21 18 18 19 19 21 19 19 21 23 24 27 29 30 33 34 34 34 33 34 34 28 21 16
27 27 32 27 13 14 28 27 25 12 10 7 17 19 22 26 27 27 25 25 21 18 17 18 19 19 19 17 17 19 20 21 23 25 26 28 29 31 33 35 35 32 28 19
18 17 17 21 10 15 11 19 21 13 11 14 24 27 29 28 25 27 26 26 21 18 17 17 18 18 18 16 14 15 16 17 19 19 20 21 22 24 26 27 29 30 31 30
21 22 10 17 9 10 6 3 7 7 19 28 33 31 30 29 29 28 24 23 20 18 18 17 19 19 17 16 13 12 12 13 15 16 16 15 16 17 19 20 22 23 24 24
26 23 27 24 24 16 21 29 28 19 25 23 27 31 31 30 25 23 20 19 19 19 18 17 19 19 17 15 13 11 10 10 11 12 12 13 13 13 13 14 15 16 17 17
30 27 29 31 31 19 18 15 17 17 21 24 29 33 33 32 26 24 23 20 19 19 18 18 19 18 17 15 14 12 10 9 9 10 10 11 11 11 11 11 12 12 13 13
34 31 31 32 22 23 20 15 16 21 25 27 33 37 32 33 31 30 28 24 21 20 19 18 18 18 17 15 14 13 12 11 10 10 9 9 9 9 10 10 10 10 10 9
Wind_Direction
231 230 235 236 241 253 268 285 294 296 302 296 295 294 269 244 257 267 258 289 299 305 296 287 290 295 298 301 301 299 300 300 298 297 294 290 286 281 280 277 269 267 265 258
234 236 235 236 243 259 273 292 294 309 307 307 306 299 279 263 257 254 251 298 310 308 302 298 299 302 303 301 302 301 298 296 295 293 291 289 287 285 282 280 276 277 271 264
232 242 237 233 246 260 275 296 294 312 311 307 308 304 283 274 238 252 252 286 303 304 303 305 305 301 299 308 306 306 306 301 298 295 292 289 289 290 290 285 278 275 273 268
240 244 240 232 251 260 281 292 301 310 315 298 308 285 294 258 248 247 262 285 304 312 307 307 304 304 310 310 312 313 313 308 303 298 293 291 289 287 285 283 280 276 272 270
227 241 230 240 254 250 266 292 304 306 302 300 286 269 272 270 263 249 269 289 304 316 311 310 310 315 316 317 316 319 315 304 301 301 300 295 291 289 285 283 282 279 275 269
235 237 233 241 249 242 266 292 307 300 289 298 196 303 281 265 269 304 305 294 307 313 308 313 315 315 319 318 317 322 318 306 304 304 303 300 295 292 289 285 282 279 276 272
231 233 236 239 234 243 249 295 326 334 336 222 202 262 253 279 286 292 290 296 312 313 314 316 316 318 320 321 321 326 323 319 310 306 303 300 298 297 295 292 287 281 276 272
217 230 228 232 223 228 217 230 209 218 247 283 268 239 249 297 302 290 293 304 315 317 319 318 318 321 324 326 328 328 323 322 317 313 311 305 301 302 301 298 291 287 283 276
217 221 217 215 209 221 218 207 201 216 315 341 249 272 307 297 292 311 295 310 320 323 320 318 320 322 326 327 330 330 327 325 323 320 314 312 310 307 305 305 301 298 290 280
225 213 216 214 225 232 226 212 187 213 93 297 277 283 259 322 313 304 306 320 320 321 318 320 321 324 329 332 334 332 331 327 325 322 320 318 316 310 312 312 309 303 295 280
217 218 223 220 229 227 221 218 215 194 196 174 277 261 286 307 306 325 311 317 315 321 320 322 324 330 333 335 336 335 336 333 329 328 325 324 320 316 320 320 315 309 305 286
211 218 230 229 236 230 227 230 220 211 212 211 236 274 312 295 319 324 319 314 315 318 320 322 326 332 333 337 341 341 340 337 336 335 331 327 324 317 320 327 323 318 319 295
218 217 191 245 246 239 235 242 234 231 234 223 171 263 300 309 317 319 311 310 314 314 318 321 327 330 333 339 346 346 342 339 342 338 340 329 324 320 316 325 334 335 333 319
213 217 216 214 179 208 225 248 245 234 232 242 251 284 307 316 314 306 306 311 312 312 317 320 325 330 335 341 348 351 349 347 348 344 347 344 330 324 316 330 336 336 350 344
232 237 236 242 263 268 269 269 266 256 265 253 281 283 306 314 301 310 313 312 309 309 314 319 325 330 336 344 350 355 353 354 356 351 353 354 348 340 338 338 344 346 352 357
232 238 245 256 261 268 270 269 268 268 266 267 277 284 323 308 311 319 320 310 309 309 316 320 325 332 338 344 350 355 357 354 357 353 357 359 352 351 344 359 344 340 337 2
235 232 250 265 269 272 277 269 267 267 270 268 267 305 311 292 317 327 319 311 311 314 319 322 325 332 338 344 351 357 359 360 1 357 1 4 14 12 3 8 3 7 350 332
228 234 238 262 276 272 263 263 259 262 250 275 284 304 293 305 316 330 321 321 316 312 315 321 324 330 336 344 354 358 3 4 6 4 9 11 21 24 20 15 7 4 332 302
221 224 228 237 225 274 266 258 268 269 276 280 290 276 301 313 316 326 325 324 318 308 314 322 325 329 334 343 356 0 7 9 13 17 23 24 26 31 32 38 34 36 36 37
227 227 219 215 214 231 269 272 276 252 297 284 321 305 309 317 320 325 321 323 316 307 312 322 322 326 330 339 354 359 9 10 12 28 35 37 38 41 41 46 46 43 46 45
204 216 221 225 240 262 272 255 263 264 271 273 325 315 309 315 317 321 315 319 315 308 309 318 321 324 329 334 348 358 6 10 5 20 36 44 45 45 49 53 58 58 57 59
218 204 208 212 221 262 273 243 244 259 224 288 320 313 310 307 312 313 307 311 309 306 302 311 317 321 328 327 335 351 2 8 6 11 23 28 41 45 48 50 57 64 68 71
214 222 225 219 249 265 242 317 345 256 276 292 305 307 306 306 313 308 301 300 300 300 295 303 312 315 320 323 322 338 352 360 3 5 15 22 29 37 47 51 52 53 60 65
229 235 237 249 259 273 277 274 283 284 291 285 293 298 299 304 305 307 301 299 297 294 290 294 303 309 312 317 314 318 333 343 350 353 0 4 14 23 30 39 43 49 48 54
242 241 245 255 262 292 284 287 270 273 281 295 294 291 291 295 294 298 297 303 297 291 288 287 295 304 310 307 311 305 305 315 329 339 345 349 354 3 9 21 30 38 43 43
240 241 240 253 276 285 289 286 271 286 296 292 284 285 290 290 292 289 295 292 293 286 282 283 290 294 301 306 302 302 293 293 305 319 325 331 339 350 357 6 14 19 26 35
Height
3067 3068 3068 3068 3068 3068 3068 3068 3067 3065 3062 3060 3058 3053 3055 3053 3051 3053 3054 3053 3052 3050 3049 3047 3045 3043 3041 3038 3034 3030 3024 3019 3012 3005 3000 2996 2994 2993 2992 2992 2992 2993 2995 2997
3066 3065 3066 3066 3066 3066 3066 3065 3065 3062 3061 3057 3052 3048 3047 3046 3048 3049 3049 3048 3047 3046 3044 3042 3041 3039 3035 3031 3026 3020 3015 3008 3000 2993 2987 2981 2977 2975 2973 2973 2973 2973 2973 2976
3062 3063 3063 3064 3063 3064 3063 3062 3062 3060 3057 3054 3048 3043 3042 3042 3042 3043 3044 3044 3042 3041 3040 3037 3034 3033 3028 3023 3016 3009 3002 2994 2987 2980 2974 2969 2965 2960 2957 2955 2954 2954 2954 2955
3059 3059 3060 3061 3061 3061 3061 3060 3059 3057 3056 3054 3050 3045 3039 3039 3039 3039 3039 3039 3037 3035 3033 3030 3027 3025 3019 3012 3004 2997 2987 2979 2973 2967 2962 2958 2953 2949 2946 2940 2939 2938 2937 2936
3055 3055 3056 3058 3059 3058 3058 3057 3056 3054 3052 3051 3047 3047 3035 3035 3035 3035 3036 3035 3033 3029 3027 3025 3021 3015 3009 3000 2991 2983 2974 2969 2962 2956 2949 2942 2938 2935 2931 2927 2922 2919 2919 2919
3052 3053 3054 3055 3056 3056 3055 3055 3052 3050 3050 3050 3046 3047 3032 3032 3032 3031 3031 3030 3027 3025 3022 3018 3013 3007 3000 2993 2984 2973 2963 2958 2951 2944 2938 2931 2924 2919 2914 2911 2906 2903 2900 2900
3048 3049 3050 3052 3053 3053 3053 3052 3052 3055 3054 3050 3046 3046 3029 3028 3028 3028 3027 3025 3023 3020 3017 3012 3006 3000 2994 2985 2975 2965 2954 2948 2941 2933 2925 2919 2913 2907 2901 2897 2890 2886 2883 2882
3045 3047 3046 3047 3049 3050 3050 3051 3051 3060 3056 3047 3043 3035 3025 3026 3024 3024 3022 3021 3019 3016 3011 3006 2999 2991 2983 2974 2964 2954 2945 2938 2930 2921 2914 2907 2900 2893 2888 2881 2875 2871 2867 2864
3040 3041 3041 3044 3045 3049 3047 3047 3048 3047 3048 3049 3036 3027 3024 3022 3022 3021 3019 3018 3014 3010 3005 2999 2993 2985 2977 2967 2956 2945 2936 2929 2920 2911 2903 2897 2890 2883 2877 2869 2862 2855 2850 2846
3036 3038 3039 3040 3042 3044 3044 3046 3045 3045 3049 3052 3032 3026 3019 3018 3017 3017 3014 3011 3007 3004 2999 2993 2986 2979 2970 2960 2949 2938 2929 2919 2911 2904 2897 2889 2882 2874 2866 2859 2852 2844 2836 2829
3033 3035 3037 3038 3037 3038 3040 3040 3041 3042 3042 3045 3046 3021 3015 3014 3013 3013 3010 3005 3000 2997 2991 2986 2979 2972 2963 2954 2943 2932 2923 2914 2906 2898 2890 2882 2874 2867 2858 2850 2842 2834 2825 2819
3029 3030 3032 3034 3033 3034 3035 3035 3037 3037 3038 3037 3036 3014 3010 3010 3009 3007 3004 2999 2994 2990 2986 2981 2974 2967 2959 2950 2939 2927 2918 2910 2901 2892 2884 2875 2867 2861 2852 2843 2835 2825 2817 2812
3025 3025 3028 3030 3032 3029 3029 3029 3030 3032 3032 3030 3033 3010 3005 3006 3006 3002 2997 2994 2991 2986 2982 2977 2970 2963 2955 2946 2935 2924 2914 2906 2897 2888 2879 2869 2861 2854 2847 2839 2830 2820 2811 2807
3021 3021 3020 3021 3020 3022 3023 3024 3025 3027 3026 3020 3012 3003 3002 3004 3000 2998 2993 2989 2986 2981 2977 2973 2967 2960 2952 2942 2932 2922 2913 2903 2894 2886 2875 2864 2856 2848 2841 2836 2829 2822 2812 2807
3017 3016 3016 3016 3017 3017 3017 3018 3018 3016 3015 3013 3003 3001 2997 2998 2995 2993 2989 2985 2981 2978 2974 2968 2962 2956 2949 2940 2931 2920 2911 2901 2892 2883 2872 2862 2854 2847 2840 2836 2831 2824 2818 2814
3010 3011 3011 3011 3012 3011 3009 3009 3008 3007 3005 3000 2998 2994 2995 2992 2989 2986 2982 2979 2976 2973 2969 2964 2958 2952 2945 2937 2929 2919 2910 2900 2891 2882 2872 2862 2855 2847 2840 2835 2834 2828 2824 2820
3007 3007 3008 3005 3007 3006 3001 2996 2997 2996 2994 2994 2991 2990 2989 2987 2984 2981 2977 2973 2971 2968 2963 2959 2955 2949 2943 2936 2928 2919 2909 2900 2892 2883 2874 2864 2856 2848 2842 2837 2833 2830 2827 2824
3000 3003 3005 3003 3004 3002 2989 2988 2988 2987 2987 2985 2985 2985 2983 2982 2980 2976 2972 2969 2966 2963 2960 2956 2952 2946 2941 2935 2927 2919 2911 2903 2896 2887 2877 2868 2859 2851 2843 2838 2834 2830 2829 2826
2994 2998 3000 3000 2996 2988 2984 2984 2983 2981 2981 2981 2980 2980 2980 2977 2974 2972 2968 2964 2961 2959 2956 2952 2948 2944 2939 2934 2927 2921 2913 2907 2901 2893 2882 2872 2865 2858 2852 2844 2838 2833 2831 2831
2986 2990 2995 2994 2993 2990 2979 2977 2976 2977 2976 2974 2976 2975 2974 2972 2968 2967 2963 2960 2957 2954 2952 2949 2946 2942 2937 2933 2928 2923 2917 2911 2907 2899 2889 2881 2875 2869 2862 2855 2849 2843 2839 2837
2978 2983 2985 2988 2988 2977 2972 2975 2974 2977 2977 2971 2971 2970 2968 2967 2965 2962 2958 2956 2953 2950 2948 2946 2942 2939 2935 2932 2928 2923 2918 2914 2910 2904 2897 2891 2886 2881 2875 2867 2861 2857 2853 2850
2969 2973 2975 2983 2985 2975 2964 2967 2970 2969 2969 2967 2966 2964 2962 2961 2959 2957 2954 2951 2949 2946 2944 2942 2940 2937 2933 2930 2927 2923 2919 2916 2912 2908 2903 2899 2893 2889 2884 2880 2876 2871 2868 2865
2964 2964 2965 2968 2965 2964 2964 2964 2965 2965 2966 2963 2961 2960 2957 2955 2954 2951 2949 2946 2944 2942 2940 2938 2936 2934 2931 2929 2925 2922 2919 2917 2914 2910 2907 2903 2899 2895 2891 2887 2884 2882 2879 2877
2955 2957 2957 2960 2958 2960 2961 2961 2961 2962 2961 2958 2957 2954 2951 2949 2948 2946 2944 2941 2939 2937 2936 2934 2932 2930 2928 2926 2923 2921 2919 2917 2915 2912 2909 2906 2903 2900 2897 2894 2891 2888 2885 2884
2948 2950 2950 2951 2950 2955 2955 2956 2955 2955 2954 2952 2950 2947 2944 2942 2943 2941 2939 2937 2934 2932 2931 2930 2928 2927 2925 2923 2921 2919 2917 2915 2914 2912 2910 2908 2905 2903 2901 2899 2897 2895 2893 2890
2937 2941 2944 2943 2949 2949 2948 2949 2949 2949 2948 2946 2941 2938 2938 2935 2935 2934 2934 2931 2929 2927 2926 2925 2925 2924 2922 2920 2918 2916 2915 2913 2912 2911 2909 2907 2905 2903 2902 2901 2899 2898 2897 2896